CZ-6A DEB

Last updated on Tue Oct 07 2025 00:02:06 GMT+0000 (Coordinated Universal Time)

1 65548U 25199E 25279.47055003 .00000141 00000+0 49781-4 0 9991 2 65548 85.9934 157.6913 0012096 166.4027 193.7493 14.26955911 4210
UTC large
Height (km)
Speed (km/s)
/
Latitude / Longitude
Inclination (degrees)
Orbital Period (minutes)
Azimuth
Elevation
Range (km)
Doppler Factor

Next 0 passes for location: London (51.5072 / 0.1276)

Sorry there are no passes over London.
CZ-6A DEB